(51) Nemausa
ephemeris date magn radius delta ra dec elong phase
Today15 Sep 202512.42.212 AU3.192 AU12h12m+00°12'10.8°4.9°
Opposition21 Jun 202610.82.360 AU1.370 AU17h59m-06°07'162.7°7.4°
(51) Nemausa - 2025-09-15
astro.vanbuitenen.nl


 
-1 year
-1 month
-1 day
Now
+1 day
+1 month
+1 year

The interactive orbit chart above shows the body's path through the solar system and its position at the given date. Green and blue lines are shown perpendicular to the ecliptic plane: Green if the path is above the ecliptic plane, blue if it is below. (Left-click and drag to rotate the view; Right-click and drag to move the view; Use scroll wheel to zoom in our out.)

The orbital elements of Nemausa are:

            e (Eccentricity)                : 0.0659196
            a (Semimajor axis)              : 2.3655357
            i (Inclination)                 : 9.97290
            Ω (Longitude of ascending node) : 175.88085
            ω (Argument of perihelion)      : 2.20392
            M (Mean anomaly)                : 332.43722
            Epoch                           : 2025 May 05

            L (Longitude of perihelion)     : 178.05150
            B (Latitude of perihelion)      : 0.38159
            P (Orbital period in years)     : 3.64            
        

The light curve chart below shows the estimated development of the minor planet's magnitude.


The all-sky chart below shows the path of the minor planet over the same period as the light curve. The current position is marked yellow.





The following chart shows the path of the minor planet in the next few days. The field of view is optimized for (~10x50) binoculars and finderscopes. A more printer-friendly version of the same chart can be found below.




Ephemerides:
Date       Time       RA (2000)    DEC (2000)    delta   radius  elong  phase   PA    magn
2025-09-15 00:00 UT   12 12 19.2   +00 12 27     3.192    2.212   10.8    4.9   106   12.4 
2025-09-15 20:44 UT   12 13 59.8   +00 03 34     3.193    2.212   10.4    4.7   105   12.4 
2025-09-16 00:00 UT   12 14 15.7   +00 02 10     3.194    2.212   10.3    4.7   105   12.4 
2025-09-17 00:00 UT   12 16 12.1   +00 08 07     3.195    2.212    9.9    4.5   105   12.4 
2025-09-18 00:00 UT   12 18 08.7   +00 18 23     3.197    2.212    9.4    4.3   104   12.4 
2025-09-19 00:00 UT   12 20 05.3   +00 28 40     3.199    2.212    9.0    4.1   103   12.3 
2025-09-20 00:00 UT   12 22 02.0   +00 38 57     3.201    2.212    8.5    3.9   103   12.3 
2025-09-21 00:00 UT   12 23 58.7   +00 49 13     3.202    2.212    8.1    3.7   102   12.3 
2025-09-22 00:00 UT   12 25 55.5   +00 59 29     3.203    2.213    7.6    3.5   101   12.3 
2025-09-23 00:00 UT   12 27 52.4   -01 09 45     3.205    2.213    7.2    3.3   100   12.3 
2025-09-24 00:00 UT   12 29 49.3   -01 20 01     3.206    2.213    6.7    3.1    98   12.3 
2025-09-25 00:00 UT   12 31 46.3   -01 30 16     3.207    2.213    6.3    2.9    97   12.3 
2025-09-26 00:00 UT   12 33 43.3   -01 40 30     3.208    2.213    5.9    2.7    95   12.3 
2025-09-27 00:00 UT   12 35 40.4   -01 50 43     3.209    2.213    5.4    2.5    93   12.3 
2025-09-28 00:00 UT   12 37 37.6   -02 00 56     3.210    2.213    5.0    2.3    91   12.2 
2025-09-29 00:00 UT   12 39 34.8   -02 11 08     3.211    2.214    4.6    2.1    89   12.2 
2025-09-30 00:00 UT   12 41 32.1   -02 21 19     3.211    2.214    4.2    1.9    86   12.2 
2025-10-01 00:00 UT   12 43 29.5   -02 31 29     3.212    2.214    3.8    1.7    82   12.2 


    Terminology:
            
    delta:  distance between minor planet and earth in AU
    radius: distance between minor planet and sun in AU
    magn:   magnitude (brightness) estimate    
    ra:     right ascension in hours (24h = 360deg)
    dec:    declination in degrees
    elong:  elongation in degrees (angle sun-earth-minor planet)    
    phase:  phase angle in degrees (angle sun-minor planet-earth)        
    AU:     Astronomical Unit (mean distance between earth and sun: 149597870.7 km
    

Orbital elements provided by the MPC (Minor Planet Center).
Calculations by a modified version of AAPlus, a C# implementation of the AA+ project by PJ Naughter from the algorithms presented in the book "Astronomical Algorithms" by Jean Meeus.
NGC2000 dso catalog and star labels from VizieR as provided by the Strasbourg astronomical Data Center.
Tycho2 catalog from the ESO archive.